TimeEST,TemperatureF,Dew PointF,Humidity,Sea Level PressureIn,VisibilityMPH,Wind Direction,Wind SpeedMPH,Gust SpeedMPH,PrecipitationIn,Events,Conditions,WindDirDegrees,DateUTC
12:53 AM,30.9,28.9,92,29.81,9.0,Calm,Calm,-,N/A,,Clear,0,2012-12-19 05:53:00
1:53 AM,30.0,28.0,92,29.83,9.0,Calm,Calm,-,N/A,,Clear,0,2012-12-19 06:53:00
2:53 AM,39.0,35.1,86,29.88,10.0,West,6.9,-,N/A,,Scattered Clouds,260,2012-12-19 07:53:00
3:16 AM,42.8,35.6,76,29.88,10.0,West,9.2,18.4,N/A,,Mostly Cloudy,270,2012-12-19 08:16:00
3:27 AM,41.0,33.8,76,29.89,10.0,West,10.4,20.7,N/A,,Scattered Clouds,280,2012-12-19 08:27:00
3:53 AM,39.9,33.1,77,29.92,10.0,WNW,6.9,16.1,N/A,,Mostly Cloudy,290,2012-12-19 08:53:00
4:53 AM,39.0,33.1,79,29.95,8.0,WNW,4.6,-,N/A,,Overcast,290,2012-12-19 09:53:00
5:53 AM,39.0,34.0,82,29.99,7.0,WSW,3.5,-,N/A,,Overcast,240,2012-12-19 10:53:00
6:53 AM,39.0,33.1,79,30.01,7.0,West,4.6,-,N/A,,Overcast,260,2012-12-19 11:53:00
7:48 AM,37.4,32.0,81,30.01,6.0,West,3.5,-,N/A,,Haze,260,2012-12-19 12:48:00
7:53 AM,36.0,32.0,86,30.03,5.0,Calm,Calm,-,N/A,,Partly Cloudy,0,2012-12-19 12:53:00
8:53 AM,36.0,32.0,86,30.07,5.0,Calm,Calm,-,N/A,,Clear,0,2012-12-19 13:53:00
9:53 AM,39.9,34.0,79,30.09,6.0,WSW,3.5,-,N/A,,Haze,250,2012-12-19 14:53:00
10:53 AM,41.0,34.0,76,30.09,7.0,Calm,Calm,-,N/A,,Clear,0,2012-12-19 15:53:00
11:53 AM,43.0,34.0,71,30.10,8.0,Calm,Calm,-,N/A,,Clear,0,2012-12-19 16:53:00
12:53 PM,45.0,35.1,68,30.09,8.0,Calm,Calm,-,N/A,,Clear,0,2012-12-19 17:53:00
1:53 PM,46.0,34.0,63,30.09,9.0,Calm,Calm,-,N/A,,Clear,0,2012-12-19 18:53:00
2:53 PM,46.0,35.1,66,30.07,7.0,Calm,Calm,-,N/A,,Clear,0,2012-12-19 19:53:00
3:53 PM,46.9,35.1,63,30.08,7.0,Calm,Calm,-,N/A,,Clear,0,2012-12-19 20:53:00
4:53 PM,45.0,35.1,68,30.07,8.0,ENE,8.1,-,N/A,,Clear,70,2012-12-19 21:53:00
5:53 PM,42.1,36.0,79,30.09,8.0,ENE,3.5,-,N/A,,Clear,70,2012-12-19 22:53:00
6:53 PM,43.0,36.0,76,30.09,8.0,East,4.6,-,N/A,,Clear,80,2012-12-19 23:53:00
7:53 PM,43.0,36.0,76,30.07,8.0,East,8.1,-,N/A,,Scattered Clouds,100,2012-12-20 00:53:00
8:53 PM,44.1,36.0,73,30.07,8.0,ESE,5.8,-,N/A,,Overcast,110,2012-12-20 01:53:00
9:53 PM,44.1,36.0,73,30.04,8.0,East,10.4,-,N/A,,Overcast,100,2012-12-20 02:53:00
10:53 PM,44.1,37.0,76,30.02,8.0,ESE,9.2,-,N/A,,Overcast,110,2012-12-20 03:53:00
11:53 PM,43.0,36.0,76,29.97,8.0,ESE,11.5,-,N/A,,Mostly Cloudy,110,2012-12-20 04:53:00